This is the latest recevied weather packets stored in our database for station/object 9M4GEK-3. If no packets are shown the sender has not sent any weather packets the latest 10 day(s).
| Time | Temp. | Humidity | Pressure | Rain* | Wind** | Luminosity | Snow |
|---|---|---|---|---|---|---|---|
| 1787774421 | 28.89° C | 60% | 1009.6 hPa | - | - | - | - |
| 1787773940 | 28.33° C | 63% | 1010.8 hPa | - | - | - | - |
| 1787773617 | 28.89° C | 59% | 1009.6 hPa | - | - | - | - |
| 1787773040 | 28.33° C | 62% | 1010.7 hPa | - | - | - | - |
| 1787772804 | 29.44° C | 58% | 1009.6 hPa | - | - | - | - |
| 1787772400 | 29.44° C | 57% | 1009.7 hPa | - | - | - | - |
| 1787772139 | 28.89° C | 63% | 1010.9 hPa | - | - | - | - |
| 1787771239 | 28.89° C | 63% | 1011 hPa | - | - | - | - |
| 1787771034 | 29.44° C | 56% | 1009.5 hPa | - | - | - | - |
| 1787770339 | 28.89° C | 63% | 1011.1 hPa | - | - | - | - |
| 1787770065 | 30° C | 54% | 1009.2 hPa | - | - | - | - |
| 1787769438 | 28.33° C | 62% | 1011 hPa | - | - | - | - |
| 1787769288 | 30.56° C | 53% | 1009.2 hPa | - | - | - | - |
| 1787768538 | 30.56° C | 52% | 1009.1 hPa | - | - | - | - |
| 1787768538 | 28.33° C | 63% | 1011.2 hPa | - | - | - | - |
| 1787767638 | 28.89° C | 62% | 1011.3 hPa | - | - | - | - |
| 1787767286 | 31.11° C | 50% | 1009.3 hPa | - | - | - | - |
| 1787766738 | 28.89° C | 63% | 1011.5 hPa | - | - | - | - |
| 1787766529 | 32.22° C | 48% | 1009.3 hPa | - | - | - | - |
| 1787765837 | 28.33° C | 63% | 1011.6 hPa | - | - | - | - |
| 1787765545 | 32.78° C | 46% | 1009.1 hPa | - | - | - | - |
| 1787764936 | 28.33° C | 64% | 1011.7 hPa | - | - | - | - |
| 1787764036 | 28.33° C | 63% | 1011.7 hPa | - | - | - | - |
| 1787763135 | 28.89° C | 62% | 1011.8 hPa | - | - | - | - |
| 1787762235 | 28.89° C | 61% | 1012 hPa | - | - | - | - |
* Rain since midnight (hover to see other rain measurements)
** Current wind speed in m/s (hover to see current wind gust speed)